Location: Killam
(52.7910°N, 111.8608°W)
Time: 21:48:44
(UTC+00:00)

A-11 Canister half - Pass Details

Date: 16 February 2026
Orbit: 1525 x 1683 km, 47.3° (Epoch: 5 March)

Event Time Altitude Azimuth Distance (km) Brightness Sun altitude
Rises 23:37:20 0° 209° (SSW) 4,716 12.8 8.0°
Reaches altitude 10° 23:40:49 10° 200° (SSW) 3,717 12.0 7.5°
Maximum altitude 23:48:41 32° 142° (SE) 2,398 10.1 6.5°
Drops below altitude 10° 23:56:29 10° 84° (E) 3,695 10.5 5.5°
Sets 23:59:55 0° 75° (ENE) 4,684 10.9 5.0°
